SL-8 R/B - Orbit

View from above orbital plane
View from above orbital plane
View from above satellite
View from above satellite

Ground track
Ground track

The orbit data is extracted from the following two-line orbital elements,

1 33066U 08031G   13142.48725306  .00000134  00000-0  56165-4 0  4952
2 33066 048.4426 219.4668 0008175 312.7613 120.5414 14.68390807264171
Epoch (UTC): 22 May 2013 11:41:38
Eccentricity: 0.0008175
inclination: 48.4426°
perigee height: 660 km
apogee height: 672 km
right ascension of ascending node: 219.4668°
argument of perigee: 312.7613°
revolutions per day: 14.68390807
mean anomaly at epoch: 120.5414°
orbit number at epoch: 26417

The dashed part of the orbit path shows where the satellite is in the earth's shadow,  

Developed and maintained by Chris Peat, Heavens-Above GmbH. Please read the updated FAQ before sending e-mail. Imprint. DLR